Location: Hilderbrand
(37.5756°N, 89.8540°W)
Time: 11:34:13
(UTC+00:00)

Landsat 7 - Pass Details

Date: 15 November 2025
Orbit: 680 x 682 km, 97.9° (Epoch: 05 December)

Event Time Altitude Azimuth Distance (km) Brightness Sun altitude
Rises 23:06:48 0° 147° (SSE) 3,029 7.0 -4.2°
Reaches altitude 10° 23:09:08 10° 139° (SE) 2,117 6.1 -4.7°
Maximum altitude 23:13:25 38° 72° (ENE) 1,038 4.2 -5.5°
Drops below altitude 10° 23:17:43 10° 5° (N) 2,129 6.1 -6.3°
Sets 23:20:04 0° 357° (N) 3,048 6.9 -6.7°
